Weather in Gus-Chrustalniy

Russia / Vladimir Oblast     55°37′11″N   40°39′28″E
temp.,
°C
wind,
m/s
gust,
m/s
humid.,
%
clouds,
%
prec.,
mm/h
press.,
hPa
HPBL,
m
28 november, sun
sun2800:00+1s61497100 1.6 1004773
03:00+1s51397100 1.6 1003588
06:00+1s51398100 0.1 1003523
09:00+2s51298100 0.1 1004521
12:00+4ssw41193100 0.0 1005854
15:00+3ssw499582 0.0 1007357
18:000ssw389795 0.0 1009219
21:00−2ssw2797100 0.0 1010119
29 november, mon
mon2900:00−2s2497100 0.0 101285
03:00−2sse2698100 0.0 1012113
06:00+1se2799100 0.0 1010173
09:00+2ese3998100 0.0 1009212
12:00+3ese41099100 0.0 1006315
15:00+3e3999100 0.0 1003308
18:00+2e3899100 0.0 1001324
21:00+2e3899100 0.2 997284
30 november, tue
tue3000:00+3ese31099100 0.2 992298
03:00+5ese61597100 3.6 984719
06:00+8sse71794100 5.2 9771097
09:00+9s81892100 15.4 9731519
12:00+6ssw101690100 3.3 9721236
15:00+1ssw71596100 4.2 971835
18:00+2wsw81896100 3.4 9751226
21:00+1sw91796100 4.6 9811052
1 december, wed
wed100:000sw81681100 0.4 9831185
03:00−1sw7138293 0.5 9851133
06:00−2sw6118393 0.1 9871042
09:00−3sw4118696 0.1 9881013
12:00−1sw5982100 0.1 990971
15:00−2wsw5982100 0.3 990881
18:00−3wsw498880 0.0 991699
21:00−4wsw489197 0.2 992685
2 december, thu
thu200:00−4w4890100 0.3 994710
03:00−5w488494 0.5 996724
06:00−7w488790 0.0 999490
09:00−7sw388673 0.0 1000440
12:00−4ssw4774100 0.0 1000529
15:00−3s41084100 0.1 999565
18:00−2s5139496 0.8 997654
21:00+1sw51298100 1.1 997680